Weather History for Okeechobee, FL

Change the Weather History Date:

Sunday, March 10, 2013

  Actual Average Record
Temperature  
Mean Temperature 64 °F -  
Max Temperature 78 °F 76 °F 85 °F (1992)
Min Temperature 51 °F 56 °F 42 °F (1961)
Growing Degree Days 14 (Base 50)    
Moisture  
Dew Point 54 °F    
Average Humidity 73    
Maximum Humidity 100    
Minimum Humidity 41    
Precipitation  
Precipitation 0.00 in - - ()
Sea Level Pressure  
Sea Level Pressure 30.14 in    
Wind  
Wind Speed 4 mph (ENE)    
Max Wind Speed 14 mph    
Max Gust Speed 24 mph    
Visibility 10 miles    
Events      
Averages and records for this station are not official NWS values.
T = Trace of Precipitation, MM = Missing Value Source: NWS Daily Summary

Daily Weather History Graph

Daily Weather History Graph

Search for Another Location

Airport:

Trip Planner

Search our weather history database for the weather conditions in past years. The results will help you decide how hot, cold, wet, or windy it might be!

Date:

Astronomy

Mar. 10, 2013 Rise Set
Actual Time 7:37 AM EDT 7:29 PM EDT
Civil Twilight 7:14 AM EDT 7:52 PM EDT
Nautical Twilight 6:47 AM EDT 8:19 PM EDT
Astronomical Twilight 6:20 AM EDT 8:46 PM EDT
Moon 6:33 AM EDT (3/10) 6:36 PM EDT (3/10)
Length of Visible Light 12h 38m
Length of Day
11h 51m
Waning Crescent, 2% of the Moon is Illuminated
Mar 10
Waning Crescent
Mar 11
New
Mar 19
First Quarter
Mar 27
Full
Apr 3
Last Quarter

Hourly Weather History & Observations

Time (EDT) Temp. Dew Point Humidity Pressure Visibility Wind Dir Wind Speed Gust Speed Precip Events Conditions
12:15 AM 53.6 °F 50.0 °F 88% 30.19 in 10.0 mi North 3.5 mph - N/A   Clear
12:35 AM 53.6 °F 50.0 °F 88% 30.18 in 10.0 mi Calm Calm - N/A   Clear
1:15 AM 53.6 °F 50.0 °F 88% 30.18 in 10.0 mi Calm Calm - N/A   Clear
1:35 AM 51.8 °F 50.0 °F 94% 30.17 in 10.0 mi Calm Calm - N/A   Scattered Clouds
1:55 AM 53.6 °F 51.8 °F 94% 30.15 in 10.0 mi Calm Calm - N/A   Scattered Clouds
3:15 AM 53.6 °F 51.8 °F 94% 30.14 in 10.0 mi NNE 4.6 mph - N/A   Scattered Clouds
3:35 AM 53.6 °F 51.8 °F 94% 30.14 in 10.0 mi Calm Calm - N/A   Clear
3:55 AM 53.6 °F 51.8 °F 94% 30.13 in 10.0 mi NNE 3.5 mph - N/A   Clear
4:15 AM 53.6 °F 51.8 °F 94% 30.13 in 10.0 mi Calm Calm - N/A   Clear
4:35 AM 51.8 °F 50.0 °F 94% 30.14 in 10.0 mi Calm Calm - N/A   Scattered Clouds
4:55 AM 53.6 °F 51.8 °F 94% 30.14 in 10.0 mi Calm Calm - N/A   Scattered Clouds
5:15 AM 51.8 °F 51.8 °F 100% 30.13 in 10.0 mi Calm Calm - N/A   Mostly Cloudy
5:35 AM 51.8 °F 51.8 °F 100% 30.13 in 10.0 mi Calm Calm - N/A   Scattered Clouds
5:55 AM 53.6 °F 51.8 °F 94% 30.13 in 10.0 mi Calm Calm - N/A   Scattered Clouds
6:15 AM 51.8 °F 50.0 °F 94% 30.14 in 10.0 mi Calm Calm - N/A   Scattered Clouds
6:55 AM 51.8 °F 51.8 °F 100% 30.14 in 10.0 mi NNE 3.5 mph - N/A   Mostly Cloudy
7:15 AM 53.6 °F 51.8 °F 94% 30.15 in 10.0 mi Calm Calm - N/A   Mostly Cloudy
8:35 AM 59.0 °F 53.6 °F 82% 30.16 in 10.0 mi NNE 4.6 mph - N/A   Overcast
8:55 AM 60.8 °F 55.4 °F 82% 30.16 in 10.0 mi NNE 3.5 mph - N/A   Scattered Clouds
9:15 AM 62.6 °F 55.4 °F 77% 30.17 in 10.0 mi Calm Calm - N/A   Scattered Clouds
9:35 AM 66.2 °F 55.4 °F 68% 30.17 in 10.0 mi NNE 4.6 mph - N/A   Clear
9:55 AM 68.0 °F 55.4 °F 64% 30.18 in 10.0 mi NE 3.5 mph - N/A   Clear
10:15 AM 69.8 °F 55.4 °F 60% 30.17 in 10.0 mi NE 3.5 mph - N/A   Scattered Clouds
10:35 AM 69.8 °F 55.4 °F 60% 30.18 in 10.0 mi ENE 4.6 mph - N/A   Overcast
10:55 AM 69.8 °F 55.4 °F 60% 30.18 in 10.0 mi ENE 5.8 mph - N/A   Overcast
11:15 AM 69.8 °F 55.4 °F 60% 30.17 in 10.0 mi East 4.6 mph - N/A   Overcast
11:35 AM 73.4 °F 55.4 °F 53% 30.18 in 10.0 mi ENE 6.9 mph - N/A   Mostly Cloudy
11:55 AM 73.4 °F 55.4 °F 53% 30.17 in 10.0 mi East 9.2 mph - N/A   Mostly Cloudy
12:15 PM 75.2 °F 53.6 °F 47% 30.17 in 10.0 mi NE 5.8 mph - N/A   Overcast
12:35 PM 77.0 °F 53.6 °F 44% 30.15 in 10.0 mi East 13.8 mph 18.4 mph N/A   Mostly Cloudy
12:55 PM 77.0 °F 51.8 °F 41% 30.14 in 10.0 mi East 9.2 mph 19.6 mph N/A   Scattered Clouds
1:15 PM 75.2 °F 53.6 °F 47% 30.13 in 10.0 mi East 10.4 mph 18.4 mph N/A   Scattered Clouds
1:35 PM 75.2 °F 53.6 °F 47% 30.12 in 10.0 mi East 11.5 mph 20.7 mph N/A   Mostly Cloudy
1:55 PM 75.2 °F 55.4 °F 50% 30.12 in 10.0 mi East 9.2 mph 18.4 mph N/A   Mostly Cloudy
2:15 PM 77.0 °F 55.4 °F 47% 30.11 in 10.0 mi East 8.1 mph 24.2 mph N/A   Mostly Cloudy
2:35 PM 77.0 °F 53.6 °F 44% 30.11 in 10.0 mi East 12.7 mph 16.1 mph N/A   Mostly Cloudy
2:55 PM 78.8 °F 53.6 °F 42% 30.10 in 10.0 mi ENE 11.5 mph 19.6 mph N/A   Mostly Cloudy
3:15 PM 75.2 °F 55.4 °F 50% 30.10 in 10.0 mi East 9.2 mph 17.3 mph N/A   Overcast
3:35 PM 73.4 °F 57.2 °F 57% 30.11 in 10.0 mi ENE 11.5 mph 17.3 mph N/A   Overcast
3:55 PM 73.4 °F 59.0 °F 61% 30.11 in 10.0 mi ENE 12.7 mph 16.1 mph N/A   Overcast
4:15 PM 75.2 °F 59.0 °F 57% 30.10 in 10.0 mi ENE 13.8 mph 21.9 mph N/A   Overcast
4:35 PM 73.4 °F 59.0 °F 61% 30.11 in 10.0 mi East 10.4 mph - N/A   Overcast
4:55 PM 73.4 °F 59.0 °F 61% 30.10 in 10.0 mi ENE 12.7 mph 16.1 mph N/A   Overcast
5:15 PM 73.4 °F 57.2 °F 57% 30.09 in 10.0 mi ENE 10.4 mph 20.7 mph N/A   Overcast
5:35 PM 73.4 °F 59.0 °F 61% 30.10 in 10.0 mi ENE 11.5 mph 17.3 mph N/A   Overcast
6:15 PM 71.6 °F 57.2 °F 60% 30.10 in 10.0 mi ENE 6.9 mph - N/A   Overcast
6:35 PM 71.6 °F 57.2 °F 60% 30.11 in 10.0 mi ENE 10.4 mph - N/A   Overcast
6:55 PM 69.8 °F 57.2 °F 64% 30.11 in 10.0 mi ENE 9.2 mph - N/A   Overcast
7:15 PM 69.8 °F 57.2 °F 64% 30.11 in 10.0 mi ENE 6.9 mph - N/A   Overcast
7:35 PM 68.0 °F 57.2 °F 68% 30.11 in 10.0 mi East 4.6 mph - N/A   Scattered Clouds
7:55 PM 68.0 °F 55.4 °F 64% 30.11 in 10.0 mi East 4.6 mph - N/A   Scattered Clouds
8:15 PM 66.2 °F 55.4 °F 68% 30.12 in 10.0 mi ENE 4.6 mph - N/A   Scattered Clouds
8:35 PM 64.4 °F 55.4 °F 73% 30.12 in 10.0 mi ENE 4.6 mph - N/A   Clear
8:55 PM 62.6 °F 55.4 °F 77% 30.13 in 10.0 mi ENE 3.5 mph - N/A   Clear
9:15 PM 62.6 °F 55.4 °F 77% 30.13 in 10.0 mi ENE 3.5 mph - N/A   Clear
9:35 PM 60.8 °F 55.4 °F 82% 30.14 in 10.0 mi NE 3.5 mph - N/A   Clear
10:15 PM 59.0 °F 55.4 °F 88% 30.15 in 10.0 mi Calm Calm - N/A   Clear
10:35 PM 59.0 °F 55.4 °F 88% 30.15 in 10.0 mi Calm Calm - N/A   Clear
11:15 PM 55.4 °F 53.6 °F 94% 30.15 in 10.0 mi ENE 3.5 mph - N/A   Clear
11:35 PM 55.4 °F 55.4 °F 100% 30.15 in 10.0 mi ENE 3.5 mph - N/A   Clear
11:55 PM 55.4 °F 55.4 °F 100% 30.14 in 10.0 mi ENE 3.5 mph - N/A   Clear
12:15 AM 57.2 °F 55.4 °F 94% 30.14 in 10.0 mi East 4.6 mph - N/A   Clear
12:35 AM 57.2 °F 53.6 °F 88% 30.13 in 10.0 mi ENE 3.5 mph - N/A   Clear
12:55 AM 55.4 °F 53.6 °F 94% 30.12 in 10.0 mi Calm Calm - N/A   Clear